owner,sensor,date,latitude,longitude,vertical_datum,direction_of_sea_water_velocity,sea_water_speed,upward_sea_water_velocity,qcFlag 
TABS,ioos:station:wmo:42044:1,2017-11-01T00:00:00Z,26.1914,-97.0507,2.0,26.75654877,28.12094771,-99999.0,'11111222,11111222,99999999' 
TABS,ioos:station:wmo:42044:1,2017-11-01T00:30:00Z,26.1914,-97.0507,2.0,18.35235892,32.84028776,-99999.0,'11111222,11111222,99999999' 
TABS,ioos:station:wmo:42044:1,2017-11-01T01:00:00Z,26.1914,-97.0507,2.0,18.52194648,29.21315457,-99999.0,'11111222,11111222,99999999' 
TABS,ioos:station:wmo:42044:1,2017-11-01T01:30:00Z,26.1914,-97.0507,2.0,18.30352328,34.42148312,-99999.0,'11111222,11111222,99999999' 
TABS,ioos:station:wmo:42044:1,2017-11-01T02:00:00Z,26.1914,-97.0507,2.0,17.56506971,34.36210849,-99999.0,'11111222,11111222,99999999' 
TABS,ioos:station:wmo:42044:1,2017-11-01T02:30:00Z,26.1914,-97.0507,2.0,22.33463783,34.13042338,-99999.0,'11111222,11111222,99999999' 
TABS,ioos:station:wmo:42044:1,2017-11-01T03:00:00Z,26.1914,-97.0507,2.0,17.28684786,37.55642688,-99999.0,'11111222,11111222,99999999' 
TABS,ioos:station:wmo:42044:1,2017-11-01T03:30:00Z,26.1914,-97.0507,2.0,18.07218812,37.94176854,-99999.0,'11111222,11111222,99999999' 
TABS,ioos:station:wmo:42044:1,2017-11-01T04:00:00Z,26.1914,-97.0507,2.0,19.24659024,41.5311955,-99999.0,'11111222,11111222,99999999' 
TABS,ioos:station:wmo:42044:1,2017-11-01T04:30:00Z,26.1914,-97.0507,2.0,21.83846565,43.25402409,-99999.0,'11111222,11111222,99999999' 
TABS,ioos:station:wmo:42044:1,2017-11-01T05:00:00Z,26.1914,-97.0507,2.0,17.1550863,37.93782545,-99999.0,'11111222,11111222,99999999' 
TABS,ioos:station:wmo:42044:1,2017-11-01T05:30:00Z,26.1914,-97.0507,2.0,15.116288,39.76592763,-99999.0,'11111222,11111222,99999999' 
TABS,ioos:station:wmo:42044:1,2017-11-01T06:00:00Z,26.1914,-97.0507,2.0,16.37798911,35.85487554,-99999.0,'11111222,11111222,99999999' 
TABS,ioos:station:wmo:42044:1,2017-11-01T06:30:00Z,26.1914,-97.0507,2.0,18.99345921,36.99408061,-99999.0,'11111222,11111222,99999999' 
TABS,ioos:station:wmo:42044:1,2017-11-01T07:00:00Z,26.1914,-97.0507,2.0,11.5305082,34.66966686,-99999.0,'11111222,11111222,99999999' 
TABS,ioos:station:wmo:42044:1,2017-11-01T07:30:00Z,26.1914,-97.0507,2.0,12.96383059,37.44436006,-99999.0,'11111222,11111222,99999999' 
TABS,ioos:station:wmo:42044:1,2017-11-01T08:00:00Z,26.1914,-97.0507,2.0,13.53289659,36.15375637,-99999.0,'11111222,11111222,99999999' 
TABS,ioos:station:wmo:42044:1,2017-11-01T08:30:00Z,26.1914,-97.0507,2.0,19.98723828,37.00906511,-99999.0,'11111222,11111222,99999999' 
TABS,ioos:station:wmo:42044:1,2017-11-01T09:00:00Z,26.1914,-97.0507,2.0,19.87291005,34.15386508,-99999.0,'11111222,11111222,99999999' 
TABS,ioos:station:wmo:42044:1,2017-11-01T09:30:00Z,26.1914,-97.0507,2.0,15.98749151,31.91436197,-99999.0,'11111222,11111222,99999999' 
TABS,ioos:station:wmo:42044:1,2017-11-01T10:00:00Z,26.1914,-97.0507,2.0,20.34538043,32.44402564,-99999.0,'11111222,11111222,99999999' 
TABS,ioos:station:wmo:42044:1,2017-11-01T10:30:00Z,26.1914,-97.0507,2.0,22.49833283,28.25006372,-99999.0,'11111222,11111222,99999999' 
TABS,ioos:station:wmo:42044:1,2017-11-01T11:00:00Z,26.1914,-97.0507,2.0,21.01174536,28.55894256,-99999.0,'11111222,11111222,99999999' 
TABS,ioos:station:wmo:42044:1,2017-11-01T11:30:00Z,26.1914,-97.0507,2.0,29.08874047,27.83025871,-99999.0,'11111222,11111222,99999999' 
TABS,ioos:station:wmo:42044:1,2017-11-01T12:00:00Z,26.1914,-97.0507,2.0,24.80649987,25.64636426,-99999.0,'11111222,11111222,99999999' 
TABS,ioos:station:wmo:42044:1,2017-11-01T12:30:00Z,26.1914,-97.0507,2.0,22.78591679,22.05086166,-99999.0,'11111222,11111222,99999999' 
TABS,ioos:station:wmo:42044:1,2017-11-01T13:00:00Z,26.1914,-97.0507,2.0,29.26085432,21.87058527,-99999.0,'11111222,11111222,99999999' 
TABS,ioos:station:wmo:42044:1,2017-11-01T13:30:00Z,26.1914,-97.0507,2.0,28.29292393,24.32606216,-99999.0,'11111222,11111222,99999999' 
TABS,ioos:station:wmo:42044:1,2017-11-01T14:00:00Z,26.1914,-97.0507,2.0,30.58661534,24.74263729,-99999.0,'11111222,11111222,99999999' 
TABS,ioos:station:wmo:42044:1,2017-11-01T14:30:00Z,26.1914,-97.0507,2.0,25.32894177,25.08110444,-99999.0,'11111222,11111222,99999999' 
TABS,ioos:station:wmo:42044:1,2017-11-01T15:00:00Z,26.1914,-97.0507,2.0,24.51863044,23.54292463,-99999.0,'11111222,11111222,99999999' 
TABS,ioos:station:wmo:42044:1,2017-11-01T15:30:00Z,26.1914,-97.0507,2.0,27.29827309,22.7203103,-99999.0,'11111222,11111222,99999999' 
TABS,ioos:station:wmo:42044:1,2017-11-01T16:00:00Z,26.1914,-97.0507,2.0,24.93366306,23.24664277,-99999.0,'11111222,11111222,99999999' 
TABS,ioos:station:wmo:42044:1,2017-11-01T16:30:00Z,26.1914,-97.0507,2.0,23.44041526,22.72540649,-99999.0,'11111222,11111222,99999999' 
TABS,ioos:station:wmo:42044:1,2017-11-01T17:00:00Z,26.1914,-97.0507,2.0,21.0231689,22.69035037,-99999.0,'11111222,11111222,99999999' 
TABS,ioos:station:wmo:42044:1,2017-11-01T17:30:00Z,26.1914,-97.0507,2.0,21.41691113,22.12795517,-99999.0,'11111222,11111222,99999999' 
TABS,ioos:station:wmo:42044:1,2017-11-01T18:00:00Z,26.1914,-97.0507,2.0,24.81228188,21.63737507,-99999.0,'11111222,11111222,99999999' 
TABS,ioos:station:wmo:42044:1,2017-11-01T18:30:00Z,26.1914,-97.0507,2.0,15.65445074,25.68263616,-99999.0,'11111222,11111222,99999999' 
TABS,ioos:station:wmo:42044:1,2017-11-01T19:00:00Z,26.1914,-97.0507,2.0,22.84404809,27.1494383,-99999.0,'11111222,11111222,99999999' 
TABS,ioos:station:wmo:42044:1,2017-11-01T19:30:00Z,26.1914,-97.0507,2.0,21.69019898,24.83865536,-99999.0,'11111222,11111222,99999999' 
TABS,ioos:station:wmo:42044:1,2017-11-01T20:00:00Z,26.1914,-97.0507,2.0,17.32536368,27.26711022,-99999.0,'11111222,11111222,99999999' 
TABS,ioos:station:wmo:42044:1,2017-11-01T20:30:00Z,26.1914,-97.0507,2.0,23.84351663,26.3706276,-99999.0,'11111222,11111222,99999999' 
TABS,ioos:station:wmo:42044:1,2017-11-01T21:00:00Z,26.1914,-97.0507,2.0,19.26082773,28.52670679,-99999.0,'11111222,11111222,99999999' 
TABS,ioos:station:wmo:42044:1,2017-11-01T21:30:00Z,26.1914,-97.0507,2.0,22.01181441,30.36324917,-99999.0,'11111222,11111222,99999999' 
TABS,ioos:station:wmo:42044:1,2017-11-01T22:00:00Z,26.1914,-97.0507,2.0,21.68842047,30.09013127,-99999.0,'11111222,11111222,99999999' 
TABS,ioos:station:wmo:42044:1,2017-11-01T22:30:00Z,26.1914,-97.0507,2.0,20.58297454,32.56904358,-99999.0,'11111222,11111222,99999999' 
TABS,ioos:station:wmo:42044:1,2017-11-01T23:00:00Z,26.1914,-97.0507,2.0,12.70482764,31.1014662,-99999.0,'11111222,11111222,99999999' 
TABS,ioos:station:wmo:42044:1,2017-11-01T23:30:00Z,26.1914,-97.0507,2.0,13.01260203,31.35516066,-99999.0,'11111222,11111222,99999999' 
TABS,ioos:station:wmo:42044:1,2017-11-02T00:00:00Z,26.1914,-97.0507,2.0,14.67179435,30.40128451,-99999.0,'11111222,11111222,99999999' 
TABS,ioos:station:wmo:42044:1,2017-11-02T00:30:00Z,26.1914,-97.0507,2.0,12.04096598,33.36403003,-99999.0,'11111222,11111222,99999999' 
TABS,ioos:station:wmo:42044:1,2017-11-02T01:00:00Z,26.1914,-97.0507,2.0,11.40934681,33.97128788,-99999.0,'11111222,11111222,99999999' 
TABS,ioos:station:wmo:42044:1,2017-11-02T01:30:00Z,26.1914,-97.0507,2.0,8.890612926,34.42357477,-99999.0,'11111222,11111222,99999999' 
TABS,ioos:station:wmo:42044:1,2017-11-02T02:00:00Z,26.1914,-97.0507,2.0,5.090308392,33.81334648,-99999.0,'11111222,11111222,99999999' 
TABS,ioos:station:wmo:42044:1,2017-11-02T02:30:00Z,26.1914,-97.0507,2.0,6.286234485,33.88372028,-99999.0,'11111222,11111222,99999999' 
TABS,ioos:station:wmo:42044:1,2017-11-02T03:00:00Z,26.1914,-97.0507,2.0,6.989438728,34.02282322,-99999.0,'11111222,11111222,99999999' 
TABS,ioos:station:wmo:42044:1,2017-11-02T03:30:00Z,26.1914,-97.0507,2.0,2.952809109,35.52716285,-99999.0,'11111222,11111222,99999999' 
TABS,ioos:station:wmo:42044:1,2017-11-02T04:00:00Z,26.1914,-97.0507,2.0,9.380268043,34.35942374,-99999.0,'11111222,11111222,99999999' 
TABS,ioos:station:wmo:42044:1,2017-11-02T04:30:00Z,26.1914,-97.0507,2.0,9.678102324,38.01095895,-99999.0,'11111222,11111222,99999999' 
TABS,ioos:station:wmo:42044:1,2017-11-02T05:00:00Z,26.1914,-97.0507,2.0,8.747492481,38.20436755,-99999.0,'11111222,11111222,99999999' 
TABS,ioos:station:wmo:42044:1,2017-11-02T05:30:00Z,26.1914,-97.0507,2.0,12.15348937,36.90717139,-99999.0,'11111222,11111222,99999999' 
TABS,ioos:station:wmo:42044:1,2017-11-02T06:00:00Z,26.1914,-97.0507,2.0,12.5423177,37.30010858,-99999.0,'11111222,11111222,99999999' 
TABS,ioos:station:wmo:42044:1,2017-11-02T06:30:00Z,26.1914,-97.0507,2.0,14.00767266,38.66988492,-99999.0,'11111222,11111222,99999999' 
TABS,ioos:station:wmo:42044:1,2017-11-02T07:00:00Z,26.1914,-97.0507,2.0,8.962060963,38.7733362,-99999.0,'11111222,11111222,99999999' 
TABS,ioos:station:wmo:42044:1,2017-11-02T07:30:00Z,26.1914,-97.0507,2.0,13.5477629,37.82238094,-99999.0,'11111222,11111222,99999999' 
TABS,ioos:station:wmo:42044:1,2017-11-02T08:00:00Z,26.1914,-97.0507,2.0,9.935240043,40.05060049,-99999.0,'11111222,11111222,99999999' 
TABS,ioos:station:wmo:42044:1,2017-11-02T08:30:00Z,26.1914,-97.0507,2.0,10.84049056,36.84753723,-99999.0,'11111222,11111222,99999999' 
TABS,ioos:station:wmo:42044:1,2017-11-02T09:00:00Z,26.1914,-97.0507,2.0,9.773046048,36.70261299,-99999.0,'11111222,11111222,99999999' 
TABS,ioos:station:wmo:42044:1,2017-11-02T09:30:00Z,26.1914,-97.0507,2.0,14.65048151,34.39837787,-99999.0,'11111222,11111222,99999999' 
TABS,ioos:station:wmo:42044:1,2017-11-02T10:00:00Z,26.1914,-97.0507,2.0,12.73700443,36.14952973,-99999.0,'11111222,11111222,99999999' 
TABS,ioos:station:wmo:42044:1,2017-11-02T10:30:00Z,26.1914,-97.0507,2.0,12.71536422,37.34586055,-99999.0,'11111222,11111222,99999999' 
TABS,ioos:station:wmo:42044:1,2017-11-02T11:00:00Z,26.1914,-97.0507,2.0,14.46390481,35.43301568,-99999.0,'11111222,11111222,99999999' 
TABS,ioos:station:wmo:42044:1,2017-11-02T11:30:00Z,26.1914,-97.0507,2.0,12.97771604,32.68482981,-99999.0,'11111222,11111222,99999999' 
TABS,ioos:station:wmo:42044:1,2017-11-02T12:00:00Z,26.1914,-97.0507,2.0,13.37801874,34.40352453,-99999.0,'11111222,11111222,99999999' 
TABS,ioos:station:wmo:42044:1,2017-11-02T12:30:00Z,26.1914,-97.0507,2.0,13.97861291,36.05778973,-99999.0,'11111222,11111222,99999999' 
TABS,ioos:station:wmo:42044:1,2017-11-02T13:00:00Z,26.1914,-97.0507,2.0,11.4824241,35.21477247,-99999.0,'11111222,11111222,99999999' 
TABS,ioos:station:wmo:42044:1,2017-11-02T13:30:00Z,26.1914,-97.0507,2.0,16.11565087,35.63011367,-99999.0,'11111222,11111222,99999999' 
TABS,ioos:station:wmo:42044:1,2017-11-02T14:00:00Z,26.1914,-97.0507,2.0,12.72690898,37.99342706,-99999.0,'11111222,11111222,99999999' 
TABS,ioos:station:wmo:42044:1,2017-11-02T14:30:00Z,26.1914,-97.0507,2.0,13.29648873,35.87158485,-99999.0,'11111222,11111222,99999999' 
TABS,ioos:station:wmo:42044:1,2017-11-02T15:00:00Z,26.1914,-97.0507,2.0,16.21171308,38.14681376,-99999.0,'11111222,11111222,99999999' 
TABS,ioos:station:wmo:42044:1,2017-11-02T15:30:00Z,26.1914,-97.0507,2.0,17.14344836,38.43776528,-99999.0,'11111222,11111222,99999999' 
TABS,ioos:station:wmo:42044:1,2017-11-02T16:00:00Z,26.1914,-97.0507,2.0,16.15779851,35.97085765,-99999.0,'11111222,11111222,99999999' 
TABS,ioos:station:wmo:42044:1,2017-11-02T16:30:00Z,26.1914,-97.0507,2.0,13.61142977,38.58362865,-99999.0,'11111222,11111222,99999999' 
TABS,ioos:station:wmo:42044:1,2017-11-02T17:00:00Z,26.1914,-97.0507,2.0,14.39495772,37.20811874,-99999.0,'11111222,11111222,99999999' 
TABS,ioos:station:wmo:42044:1,2017-11-02T17:30:00Z,26.1914,-97.0507,2.0,19.77925786,38.1507287,-99999.0,'11111222,11111222,99999999' 
TABS,ioos:station:wmo:42044:1,2017-11-02T18:00:00Z,26.1914,-97.0507,2.0,19.11132094,41.26427268,-99999.0,'11111222,11111222,99999999' 
TABS,ioos:station:wmo:42044:1,2017-11-02T18:30:00Z,26.1914,-97.0507,2.0,20.41806394,37.37836941,-99999.0,'11111222,11111222,99999999' 
TABS,ioos:station:wmo:42044:1,2017-11-02T19:00:00Z,26.1914,-97.0507,2.0,23.02390793,37.86632541,-99999.0,'11111222,11111222,99999999' 
TABS,ioos:station:wmo:42044:1,2017-11-02T19:30:00Z,26.1914,-97.0507,2.0,23.20452502,39.05972478,-99999.0,'11111222,11111222,99999999' 
TABS,ioos:station:wmo:42044:1,2017-11-02T20:00:00Z,26.1914,-97.0507,2.0,23.56861939,38.23985617,-99999.0,'11111222,11111222,99999999' 
TABS,ioos:station:wmo:42044:1,2017-11-02T20:30:00Z,26.1914,-97.0507,2.0,24.77030609,40.12132849,-99999.0,'11111222,11111222,99999999' 
TABS,ioos:station:wmo:42044:1,2017-11-02T21:00:00Z,26.1914,-97.0507,2.0,25.76808249,38.25388085,-99999.0,'11111222,11111222,99999999' 
TABS,ioos:station:wmo:42044:1,2017-11-02T21:30:00Z,26.1914,-97.0507,2.0,23.94631427,35.62646769,-99999.0,'11111222,11111222,99999999' 
TABS,ioos:station:wmo:42044:1,2017-11-02T22:00:00Z,26.1914,-97.0507,2.0,30.23105145,32.31469171,-99999.0,'11111222,11111222,99999999' 
TABS,ioos:station:wmo:42044:1,2017-11-02T22:30:00Z,26.1914,-97.0507,2.0,29.14789831,30.46830648,-99999.0,'11111222,11111222,99999999' 
TABS,ioos:station:wmo:42044:1,2017-11-02T23:00:00Z,26.1914,-97.0507,2.0,20.39907219,30.72692793,-99999.0,'11111222,11111222,99999999' 
TABS,ioos:station:wmo:42044:1,2017-11-02T23:30:00Z,26.1914,-97.0507,2.0,24.67553374,28.48063377,-99999.0,'11111222,11111222,99999999' 
TABS,ioos:station:wmo:42044:1,2017-11-03T00:00:00Z,26.1914,-97.0507,2.0,26.74229628,27.49035103,-99999.0,'11111222,11111222,99999999' 
TABS,ioos:station:wmo:42044:1,2017-11-03T00:30:00Z,26.1914,-97.0507,2.0,20.15368757,24.99007203,-99999.0,'11111222,11111222,99999999' 
TABS,ioos:station:wmo:42044:1,2017-11-03T01:00:00Z,26.1914,-97.0507,2.0,27.74038631,23.33156874,-99999.0,'11111222,11111222,99999999' 
TABS,ioos:station:wmo:42044:1,2017-11-03T01:30:00Z,26.1914,-97.0507,2.0,21.81946267,23.78386007,-99999.0,'11111222,11111222,99999999' 
TABS,ioos:station:wmo:42044:1,2017-11-03T02:00:00Z,26.1914,-97.0507,2.0,24.15566562,21.70010138,-99999.0,'11111222,11111222,99999999' 
TABS,ioos:station:wmo:42044:1,2017-11-03T02:30:00Z,26.1914,-97.0507,2.0,16.95366247,22.01681176,-99999.0,'11111222,11111222,99999999' 
TABS,ioos:station:wmo:42044:1,2017-11-03T03:00:00Z,26.1914,-97.0507,2.0,16.13576139,23.17285481,-99999.0,'11111222,11111222,99999999' 
TABS,ioos:station:wmo:42044:1,2017-11-03T03:30:00Z,26.1914,-97.0507,2.0,11.86811841,19.93615058,-99999.0,'11111222,11111222,99999999' 
TABS,ioos:station:wmo:42044:1,2017-11-03T04:00:00Z,26.1914,-97.0507,2.0,10.5977112,19.08553641,-99999.0,'11111222,11111222,99999999' 
TABS,ioos:station:wmo:42044:1,2017-11-03T04:30:00Z,26.1914,-97.0507,2.0,10.76851685,18.46515908,-99999.0,'11111222,11111222,99999999' 
TABS,ioos:station:wmo:42044:1,2017-11-03T05:00:00Z,26.1914,-97.0507,2.0,7.958579094,21.234512,-99999.0,'11111222,11111222,99999999' 
TABS,ioos:station:wmo:42044:1,2017-11-03T05:30:00Z,26.1914,-97.0507,2.0,9.842829497,19.07070266,-99999.0,'11111222,11111222,99999999' 
TABS,ioos:station:wmo:42044:1,2017-11-03T06:00:00Z,26.1914,-97.0507,2.0,10.91066208,20.81627248,-99999.0,'11111222,11111222,99999999' 
TABS,ioos:station:wmo:42044:1,2017-11-03T06:30:00Z,26.1914,-97.0507,2.0,11.87924252,21.5208852,-99999.0,'11111222,11111222,99999999' 
TABS,ioos:station:wmo:42044:1,2017-11-03T07:00:00Z,26.1914,-97.0507,2.0,13.87680583,21.76523145,-99999.0,'11111222,11111222,99999999' 
TABS,ioos:station:wmo:42044:1,2017-11-03T07:30:00Z,26.1914,-97.0507,2.0,12.14379425,21.29654432,-99999.0,'11111222,11111222,99999999' 
TABS,ioos:station:wmo:42044:1,2017-11-03T08:00:00Z,26.1914,-97.0507,2.0,12.32534945,21.36236176,-99999.0,'11111222,11111222,99999999' 
TABS,ioos:station:wmo:42044:1,2017-11-03T08:30:00Z,26.1914,-97.0507,2.0,6.516700843,19.73752011,-99999.0,'11111222,11111222,99999999' 
TABS,ioos:station:wmo:42044:1,2017-11-03T09:00:00Z,26.1914,-97.0507,2.0,4.024725947,19.37778367,-99999.0,'11111222,11111222,99999999' 
TABS,ioos:station:wmo:42044:1,2017-11-03T09:30:00Z,26.1914,-97.0507,2.0,9.209539879,18.24517745,-99999.0,'11111222,11111222,99999999' 
TABS,ioos:station:wmo:42044:1,2017-11-03T10:00:00Z,26.1914,-97.0507,2.0,3.725434264,20.16260152,-99999.0,'11111222,11111222,99999999' 
TABS,ioos:station:wmo:42044:1,2017-11-03T10:30:00Z,26.1914,-97.0507,2.0,16.84203241,18.08573195,-99999.0,'11111222,11111222,99999999' 
TABS,ioos:station:wmo:42044:1,2017-11-03T11:00:00Z,26.1914,-97.0507,2.0,10.64514644,18.08116423,-99999.0,'11111222,11111222,99999999' 
TABS,ioos:station:wmo:42044:1,2017-11-03T11:30:00Z,26.1914,-97.0507,2.0,18.17279532,16.57683323,-99999.0,'11111222,11111222,99999999' 
TABS,ioos:station:wmo:42044:1,2017-11-03T12:00:00Z,26.1914,-97.0507,2.0,12.26772141,17.60192035,-99999.0,'11111222,11111222,99999999' 
TABS,ioos:station:wmo:42044:1,2017-11-03T12:30:00Z,26.1914,-97.0507,2.0,7.222751158,18.21452717,-99999.0,'11111222,11111222,99999999' 
TABS,ioos:station:wmo:42044:1,2017-11-03T13:00:00Z,26.1914,-97.0507,2.0,16.14882743,20.13443816,-99999.0,'11111222,11111222,99999999' 
TABS,ioos:station:wmo:42044:1,2017-11-03T13:30:00Z,26.1914,-97.0507,2.0,18.24629326,22.06965564,-99999.0,'11111222,11111222,99999999' 
TABS,ioos:station:wmo:42044:1,2017-11-03T14:00:00Z,26.1914,-97.0507,2.0,16.49089034,22.37018105,-99999.0,'11111222,11111222,99999999' 
TABS,ioos:station:wmo:42044:1,2017-11-03T14:30:00Z,26.1914,-97.0507,2.0,20.9827774,22.48071618,-99999.0,'11111222,11111222,99999999' 
TABS,ioos:station:wmo:42044:1,2017-11-03T15:00:00Z,26.1914,-97.0507,2.0,17.31910839,21.43165883,-99999.0,'11111222,11111222,99999999' 
TABS,ioos:station:wmo:42044:1,2017-11-03T15:30:00Z,26.1914,-97.0507,2.0,16.71166773,22.39589471,-99999.0,'11111222,11111222,99999999' 
TABS,ioos:station:wmo:42044:1,2017-11-03T16:00:00Z,26.1914,-97.0507,2.0,17.04578696,21.38960963,-99999.0,'11111222,11111222,99999999' 
TABS,ioos:station:wmo:42044:1,2017-11-03T16:30:00Z,26.1914,-97.0507,2.0,15.62791983,21.30769814,-99999.0,'11111222,11111222,99999999' 
TABS,ioos:station:wmo:42044:1,2017-11-03T17:00:00Z,26.1914,-97.0507,2.0,18.86628376,21.43136253,-99999.0,'11111222,11111222,99999999' 
TABS,ioos:station:wmo:42044:1,2017-11-03T17:30:00Z,26.1914,-97.0507,2.0,15.18300423,23.63497832,-99999.0,'11111222,11111222,99999999' 
TABS,ioos:station:wmo:42044:1,2017-11-03T18:00:00Z,26.1914,-97.0507,2.0,17.39918188,24.31240218,-99999.0,'11111222,11111222,99999999' 
TABS,ioos:station:wmo:42044:1,2017-11-03T18:30:00Z,26.1914,-97.0507,2.0,21.89835206,20.88704144,-99999.0,'11111222,11111222,99999999' 
TABS,ioos:station:wmo:42044:1,2017-11-03T19:00:00Z,26.1914,-97.0507,2.0,21.58804581,20.92800994,-99999.0,'11111222,11111222,99999999' 
TABS,ioos:station:wmo:42044:1,2017-11-03T19:30:00Z,26.1914,-97.0507,2.0,18.94296113,19.62270369,-99999.0,'11111222,11111222,99999999' 
TABS,ioos:station:wmo:42044:1,2017-11-03T20:00:00Z,26.1914,-97.0507,2.0,16.43843065,21.23810255,-99999.0,'11111222,11111222,99999999' 
TABS,ioos:station:wmo:42044:1,2017-11-03T20:30:00Z,26.1914,-97.0507,2.0,12.75657713,18.56830902,-99999.0,'11111222,11111222,99999999' 
TABS,ioos:station:wmo:42044:1,2017-11-03T21:00:00Z,26.1914,-97.0507,2.0,12.93298068,21.53630655,-99999.0,'11111222,11111222,99999999' 
TABS,ioos:station:wmo:42044:1,2017-11-03T21:30:00Z,26.1914,-97.0507,2.0,10.71089838,18.93997096,-99999.0,'11111222,11111222,99999999' 
TABS,ioos:station:wmo:42044:1,2017-11-03T22:00:00Z,26.1914,-97.0507,2.0,4.903567953,19.06979025,-99999.0,'11111222,11111222,99999999' 
TABS,ioos:station:wmo:42044:1,2017-11-03T22:30:00Z,26.1914,-97.0507,2.0,8.848723979,18.72283098,-99999.0,'11111222,11111222,99999999' 
TABS,ioos:station:wmo:42044:1,2017-11-03T23:00:00Z,26.1914,-97.0507,2.0,8.983386594,16.907383,-99999.0,'11111222,11111222,99999999' 
TABS,ioos:station:wmo:42044:1,2017-11-03T23:30:00Z,26.1914,-97.0507,2.0,8.612395731,14.95866638,-99999.0,'11111222,11111222,99999999' 
TABS,ioos:station:wmo:42044:1,2017-11-04T00:00:00Z,26.1914,-97.0507,2.0,1.199405891,16.72366288,-99999.0,'11111222,11111222,99999999' 
TABS,ioos:station:wmo:42044:1,2017-11-04T00:30:00Z,26.1914,-97.0507,2.0,8.768243116,17.90929647,-99999.0,'11111222,11111222,99999999' 
TABS,ioos:station:wmo:42044:1,2017-11-04T01:00:00Z,26.1914,-97.0507,2.0,3.092447986,17.05483216,-99999.0,'11111222,11111222,99999999' 
TABS,ioos:station:wmo:42044:1,2017-11-04T01:30:00Z,26.1914,-97.0507,2.0,6.926483363,17.16527017,-99999.0,'11111222,11111222,99999999' 
TABS,ioos:station:wmo:42044:1,2017-11-04T02:00:00Z,26.1914,-97.0507,2.0,8.831730046,18.36776796,-99999.0,'11111222,11111222,99999999' 
TABS,ioos:station:wmo:42044:1,2017-11-04T02:30:00Z,26.1914,-97.0507,2.0,0.148644441,15.44005181,-99999.0,'11111222,11111222,99999999' 
TABS,ioos:station:wmo:42044:1,2017-11-04T03:00:00Z,26.1914,-97.0507,2.0,5.208080059,15.42367012,-99999.0,'11111222,11111222,99999999' 
TABS,ioos:station:wmo:42044:1,2017-11-04T03:30:00Z,26.1914,-97.0507,2.0,3.825941272,16.33640413,-99999.0,'11111222,11111222,99999999' 
TABS,ioos:station:wmo:42044:1,2017-11-04T04:00:00Z,26.1914,-97.0507,2.0,1.588340731,15.87609839,-99999.0,'11111222,11111222,99999999' 
TABS,ioos:station:wmo:42044:1,2017-11-04T04:30:00Z,26.1914,-97.0507,2.0,358.9474748,16.87284801,-99999.0,'11111222,11111222,99999999' 
TABS,ioos:station:wmo:42044:1,2017-11-04T05:00:00Z,26.1914,-97.0507,2.0,358.3871037,18.82746133,-99999.0,'11111222,11111222,99999999' 
TABS,ioos:station:wmo:42044:1,2017-11-04T05:30:00Z,26.1914,-97.0507,2.0,0.223041209,20.57015557,-99999.0,'11111222,11111222,99999999' 
TABS,ioos:station:wmo:42044:1,2017-11-04T06:00:00Z,26.1914,-97.0507,2.0,4.06608325,18.61685527,-99999.0,'11111222,11111222,99999999' 
TABS,ioos:station:wmo:42044:1,2017-11-04T06:30:00Z,26.1914,-97.0507,2.0,3.672318635,22.0151993,-99999.0,'11111222,11111222,99999999' 
TABS,ioos:station:wmo:42044:1,2017-11-04T07:00:00Z,26.1914,-97.0507,2.0,8.678994844,18.75474607,-99999.0,'11111222,11111222,99999999' 
TABS,ioos:station:wmo:42044:1,2017-11-04T07:30:00Z,26.1914,-97.0507,2.0,13.82614949,19.16529415,-99999.0,'11111222,11111222,99999999' 
TABS,ioos:station:wmo:42044:1,2017-11-04T08:00:00Z,26.1914,-97.0507,2.0,11.7900231,20.60468393,-99999.0,'11111222,11111222,99999999' 
TABS,ioos:station:wmo:42044:1,2017-11-04T08:30:00Z,26.1914,-97.0507,2.0,15.17578653,20.85733684,-99999.0,'11111222,11111222,99999999' 
TABS,ioos:station:wmo:42044:1,2017-11-04T09:00:00Z,26.1914,-97.0507,2.0,19.71637348,23.47629443,-99999.0,'11111222,11111222,99999999' 
TABS,ioos:station:wmo:42044:1,2017-11-04T09:30:00Z,26.1914,-97.0507,2.0,20.05659505,25.3684627,-99999.0,'11111222,11111222,99999999' 
TABS,ioos:station:wmo:42044:1,2017-11-04T10:00:00Z,26.1914,-97.0507,2.0,23.39752674,25.73621573,-99999.0,'11111222,11111222,99999999' 
TABS,ioos:station:wmo:42044:1,2017-11-04T10:30:00Z,26.1914,-97.0507,2.0,23.89868092,23.64742692,-99999.0,'11111222,11111222,99999999' 
TABS,ioos:station:wmo:42044:1,2017-11-04T11:00:00Z,26.1914,-97.0507,2.0,21.39731129,27.10848022,-99999.0,'11111222,11111222,99999999' 
TABS,ioos:station:wmo:42044:1,2017-11-04T11:30:00Z,26.1914,-97.0507,2.0,18.45460228,27.89445285,-99999.0,'11111222,11111222,99999999' 
TABS,ioos:station:wmo:42044:1,2017-11-04T12:00:00Z,26.1914,-97.0507,2.0,20.65644482,26.76032885,-99999.0,'11111222,11111222,99999999' 
TABS,ioos:station:wmo:42044:1,2017-11-04T12:30:00Z,26.1914,-97.0507,2.0,11.82337319,22.98769453,-99999.0,'11111222,11111222,99999999' 
TABS,ioos:station:wmo:42044:1,2017-11-04T13:00:00Z,26.1914,-97.0507,2.0,16.52956941,26.81829599,-99999.0,'11111222,11111222,99999999' 
TABS,ioos:station:wmo:42044:1,2017-11-04T13:30:00Z,26.1914,-97.0507,2.0,18.25931102,31.9486416,-99999.0,'11111222,11111222,99999999' 
TABS,ioos:station:wmo:42044:1,2017-11-04T14:00:00Z,26.1914,-97.0507,2.0,7.513733968,31.27855815,-99999.0,'11111222,11111222,99999999' 
TABS,ioos:station:wmo:42044:1,2017-11-04T14:30:00Z,26.1914,-97.0507,2.0,7.428500471,31.86745048,-99999.0,'11111222,11111222,99999999' 
TABS,ioos:station:wmo:42044:1,2017-11-04T15:00:00Z,26.1914,-97.0507,2.0,10.40430419,32.00623064,-99999.0,'11111222,11111222,99999999' 
TABS,ioos:station:wmo:42044:1,2017-11-04T15:30:00Z,26.1914,-97.0507,2.0,10.43091614,32.97492684,-99999.0,'11111222,11111222,99999999' 